カタログに戻る

STARLINK-37601

運用中通信VLEO
NORAD 69450·PAYLOAD·🇺🇸 United States

打ち上げ Jun 8, 2026 から Cape Canaveral Space Force Station

Loading…

次のパス (今後24時間)

TLE

最新Source: CelesTrak SupGP

元期: Sep 15, 2026, 03:11 UTC

1 69450C 26127H   26258.13312500 -.00062749  00000+0 -18542-2 0  2589
2 69450  53.1569 190.7422 0001279  83.1533 111.5244 15.34416966    16

AllMySatでSTARLINK-37601をリアルタイム追跡

Download on the App Store